Weather in Kanev

Ukraine / Cherkassi District     49°45′03″N   31°28′10″E
temp.,
°C
wind,
m/s
gust,
m/s
humid.,
%
clouds,
%
prec.,
mm/h
press.,
hPa
HPBL,
m
21 october, thu
thu2100:00+11ssw71663100 0.0 1018473
03:00+10ssw71566100 0.0 1017415
06:00+9ssw71577100 0.0 1015364
09:00+10ssw71675100 0.0 1014455
12:00+14ssw91555100 0.0 1013641
15:00+17ssw914438 0.0 1010929
18:00+16ssw91745100 0.0 1008796
21:00+15ssw8174513 0.0 1007539
22 october, fri
fri2200:00+13sw6125095 0.0 1007270
03:00+11sw5126074 0.0 1008303
06:00+13wsw6145997 0.0 1009525
09:00+13w5126488 0.0 1011825
12:00+17w7114414 0.0 10121480
15:00+17w710374 0.0 10121922
18:00+13w36505 0.0 101386
21:00+11wsw225387 0.0 101314
23 october, sat
sat2300:00+11sw265475 0.0 1014157
03:00+10wsw513664 0.0 1014300
06:00+8wsw412755 0.0 1014296
09:00+9wsw511660 0.0 1015535
12:00+12w711445 0.0 10161492
15:00+12wnw912355 0.0 10162357
18:00+9wnw510435 0.0 1018336
21:00+7wnw511615 0.0 1020472
24 october, sun
sun2400:00+4w49718 0.0 1021289
03:00+3wsw497372 0.0 1022215
06:00+3w5127293 0.0 1022374
09:00+5wnw6117395 0.1 1023725
12:00+6nw7968100 0.1 10251302
15:00+6wnw71057100 0.1 10241639
18:00+6nw8125686 0.1 10261230
21:00+5nnw7116292 0.2 10271249
25 october, mon
mon2500:00+3nnw61165100 0.1 1029591
03:00+2nnw51067100 0.1 1030485
06:00+1nnw49745 0.0 1032282
09:00+2n48695 0.0 1034526
12:00+5nne45515 0.0 1035857
15:00+6n33430 0.0 10341030
18:00+4nne22535 0.0 103542
21:00+2e22585 0.0 103528